Rutland, VT

12:46 PM EDT on April 28, 2017 (GMT -0400)
Rutland State

Weather History for KRUT - July, 2013

Change the Weather History Date:

Tuesday, July 30, 2013

  Actual Average Record
Temperature  
Mean Temperature 63 °F -  
Max Temperature 73 °F - 91 °F (1959)
Min Temperature 52 °F - 43 °F (1952)
Degree Days  
Heating Degree Days 2    
Month to date heating degree days 18  
Since 1 June heating degree days 125  
Since 1 July heating degree days 18  
Cooling Degree Days 0    
Month to date cooling degree days 201  
Year to date cooling degree days 302  
Since 1 June cooling degree days 275  
Growing Degree Days 12 (Base 50)    
Moisture  
Dew Point 54 °F    
Average Humidity 71    
Maximum Humidity 93    
Minimum Humidity 49    
Precipitation  
Precipitation 0.00 in - 1.12 in (1974)
Month to date precipitation 4.24  
Year to date precipitation 13.82  
Sea Level Pressure  
Sea Level Pressure 30.12 in    
Wind  
Wind Speed 5 mph (South)    
Max Wind Speed 9 mph    
Max Gust Speed -    
Visibility 10 miles    
Events      
T = Trace of Precipitation, MM = Missing Value Source: NWS Daily Summary

Daily Weather History Graph

Daily Weather History Graph

Search for Another Location

Airport or City:

Trip Planner

Search our weather history database for the weather conditions in past years. The results will help you decide how hot, cold, wet, or windy it might be!

Date:

Astronomy

Jul. 30, 2013 Rise Set
Actual Time 5:39 AM EDT 8:16 PM EDT
Civil Twilight 5:06 AM EDT 8:49 PM EDT
Nautical Twilight 4:25 AM EDT 9:30 PM EDT
Astronomical Twilight 3:38 AM EDT 10:16 PM EDT
Moon No Moon Rise 2:33 PM EDT (7/30)
Length of Visible Light 15h 42m
Length of Day
14h 37m
Last Quarter, 41% of the Moon is Illuminated
Jul 30
Last Quarter
Aug 6
New
Aug 14
First Quarter
Aug 20
Full
Aug 28
Last Quarter

Hourly Weather History & Observations

Time (EDT) Temp. Dew Point Humidity Pressure Visibility Wind Dir Wind Speed Gust Speed Precip Events Conditions
12:15 AM 59.0 °F 53.6 °F 82% 30.10 in 10.0 mi SE 8.1 mph - N/A   Clear
12:35 AM 59.0 °F 53.6 °F 82% 30.10 in 10.0 mi ESE 10.4 mph - N/A   Partly Cloudy
12:55 AM 59.0 °F 53.6 °F 82% 30.11 in 10.0 mi ESE 9.2 mph - N/A   Mostly Cloudy
1:15 AM 57.2 °F 53.6 °F 88% 30.10 in 10.0 mi ESE 10.4 mph - N/A   Mostly Cloudy
1:35 AM 57.2 °F 53.6 °F 88% 30.11 in 10.0 mi SE 5.8 mph - N/A   Partly Cloudy
1:55 AM 57.2 °F 53.6 °F 88% 30.11 in 10.0 mi SE 6.9 mph - N/A   Clear
2:15 AM 55.4 °F 51.8 °F 88% 30.11 in 10.0 mi ESE 5.8 mph - N/A   Clear
2:35 AM 55.4 °F 51.8 °F 88% 30.11 in 10.0 mi SSE 4.6 mph - N/A   Clear
2:55 AM 55.4 °F 51.8 °F 88% 30.11 in 10.0 mi ESE 8.1 mph - N/A   Clear
3:15 AM 55.4 °F 51.8 °F 88% 30.11 in 10.0 mi SE 4.6 mph - N/A   Clear
3:35 AM 55.4 °F 51.8 °F 88% 30.10 in 10.0 mi SE 6.9 mph - N/A   Partly Cloudy
3:55 AM 53.6 °F 51.8 °F 94% 30.11 in 10.0 mi SE 5.8 mph - N/A   Mostly Cloudy
4:15 AM 53.6 °F 51.8 °F 94% 30.11 in 10.0 mi SE 5.8 mph - N/A   Mostly Cloudy
4:35 AM 53.6 °F 51.8 °F 94% 30.11 in 10.0 mi SE 5.8 mph - N/A   Partly Cloudy
4:55 AM 53.6 °F 51.8 °F 94% 30.11 in 10.0 mi SSE 4.6 mph - N/A   Scattered Clouds
5:15 AM 53.6 °F 50.0 °F 88% 30.11 in 10.0 mi South 4.6 mph - N/A   Partly Cloudy
5:35 AM 53.6 °F 50.0 °F 88% 30.12 in 10.0 mi SE 4.6 mph - N/A   Clear
5:55 AM 53.6 °F 50.0 °F 88% 30.12 in 10.0 mi SE 5.8 mph - N/A   Clear
6:15 AM 53.6 °F 50.0 °F 88% 30.13 in 10.0 mi SE 4.6 mph - N/A   Clear
6:35 AM 51.8 °F 50.0 °F 94% 30.13 in 10.0 mi ESE 3.5 mph - N/A   Clear
6:55 AM 53.6 °F 51.8 °F 94% 30.13 in 10.0 mi SE 4.6 mph - N/A   Clear
7:15 AM 55.4 °F 51.8 °F 88% 30.13 in 10.0 mi SSE 3.5 mph - N/A   Clear
7:35 AM 57.2 °F 51.8 °F 82% 30.14 in 10.0 mi Calm Calm - N/A   Clear
7:55 AM 60.8 °F 53.6 °F 77% 30.14 in 10.0 mi Calm Calm - N/A   Clear
8:15 AM 60.8 °F 53.6 °F 77% 30.14 in 10.0 mi SSE 3.5 mph - N/A   Clear
8:35 AM 62.6 °F 55.4 °F 77% 30.15 in 10.0 mi NNE 3.5 mph - N/A   Clear
8:55 AM 64.4 °F 55.4 °F 73% 30.15 in 10.0 mi Calm Calm - N/A   Scattered Clouds
9:15 AM 64.4 °F 55.4 °F 73% 30.15 in 10.0 mi Calm Calm - N/A   Partly Cloudy
9:35 AM 64.4 °F 53.6 °F 68% 30.15 in 10.0 mi NNW 4.6 mph - N/A   Scattered Clouds
9:55 AM 66.2 °F 53.6 °F 64% 30.15 in 10.0 mi West 6.9 mph - N/A   Clear
10:15 AM 66.2 °F 53.6 °F 64% 30.15 in 10.0 mi NW 3.5 mph - N/A   Partly Cloudy
10:35 AM 66.2 °F 55.4 °F 68% 30.16 in 10.0 mi SW 3.5 mph - N/A   Scattered Clouds
10:55 AM 66.2 °F 53.6 °F 64% 30.15 in 10.0 mi North 3.5 mph - N/A   Mostly Cloudy
11:15 AM 68.0 °F 55.4 °F 64% 30.15 in 10.0 mi Calm Calm - N/A   Scattered Clouds
11:35 AM 69.8 °F 55.4 °F 60% 30.15 in 10.0 mi Calm Calm - N/A   Mostly Cloudy
12:15 PM 69.8 °F 53.6 °F 56% 30.14 in 10.0 mi West 4.6 mph - N/A   Overcast
12:35 PM 69.8 °F 53.6 °F 56% 30.14 in 10.0 mi WNW 5.8 mph - N/A   Overcast
12:55 PM 69.8 °F 53.6 °F 56% 30.13 in 10.0 mi West 8.1 mph - N/A   Overcast
1:15 PM 71.6 °F 55.4 °F 57% 30.13 in 10.0 mi WNW 9.2 mph - N/A   Mostly Cloudy
1:35 PM 71.6 °F 51.8 °F 50% 30.13 in 10.0 mi West 5.8 mph - N/A   Mostly Cloudy
1:55 PM 71.6 °F 53.6 °F 53% 30.12 in 10.0 mi WSW 8.1 mph - N/A   Mostly Cloudy
2:15 PM 71.6 °F 53.6 °F 53% 30.12 in 10.0 mi WNW 6.9 mph - N/A   Scattered Clouds
2:35 PM 71.6 °F 53.6 °F 53% 30.12 in 10.0 mi NW 4.6 mph - N/A   Mostly Cloudy
2:55 PM 73.4 °F 55.4 °F 53% 30.11 in 10.0 mi WNW 4.6 mph - N/A   Overcast
3:15 PM 73.4 °F 53.6 °F 50% 30.11 in 10.0 mi WNW 9.2 mph - N/A   Mostly Cloudy
3:35 PM 73.4 °F 55.4 °F 53% 30.10 in 10.0 mi West 9.2 mph - N/A   Partly Cloudy
3:55 PM 73.4 °F 53.6 °F 50% 30.09 in 10.0 mi West 5.8 mph - N/A   Scattered Clouds
4:15 PM 73.4 °F 53.6 °F 50% 30.09 in 10.0 mi WNW 10.4 mph - N/A   Mostly Cloudy
4:35 PM 73.4 °F 55.4 °F 53% 30.08 in 10.0 mi WNW 6.9 mph - N/A   Scattered Clouds
4:55 PM 73.4 °F 53.6 °F 50% 30.08 in 10.0 mi WNW 5.8 mph - N/A   Clear
5:15 PM 73.4 °F 55.4 °F 53% 30.08 in 10.0 mi West 8.1 mph - N/A   Scattered Clouds
5:35 PM 73.4 °F 53.6 °F 50% 30.08 in 10.0 mi WNW 8.1 mph - N/A   Scattered Clouds
5:55 PM 73.4 °F 53.6 °F 50% 30.08 in 10.0 mi West 6.9 mph - N/A   Clear
6:15 PM 73.4 °F 55.4 °F 53% 30.08 in 10.0 mi WNW 6.9 mph - N/A   Partly Cloudy
6:35 PM 71.6 °F 55.4 °F 57% 30.09 in 10.0 mi West 5.8 mph - N/A   Mostly Cloudy
6:55 PM 73.4 °F 55.4 °F 53% 30.09 in 10.0 mi West 6.9 mph - N/A   Mostly Cloudy
7:15 PM 71.6 °F 55.4 °F 57% 30.10 in 10.0 mi WSW 6.9 mph - N/A   Scattered Clouds
7:35 PM 71.6 °F 55.4 °F 57% 30.09 in 10.0 mi Calm Calm - N/A   Partly Cloudy
7:55 PM 69.8 °F 55.4 °F 60% 30.09 in 10.0 mi Calm Calm - N/A   Mostly Cloudy
8:15 PM 66.2 °F 59.0 °F 78% 30.10 in 10.0 mi SSE 4.6 mph - N/A   Scattered Clouds
8:35 PM 66.2 °F 57.2 °F 73% 30.11 in 10.0 mi Calm Calm - N/A   Mostly Cloudy
8:55 PM 64.4 °F 57.2 °F 77% 30.11 in 10.0 mi SE 5.8 mph - N/A   Overcast
9:15 PM 64.4 °F 57.2 °F 77% 30.12 in 10.0 mi ESE 4.6 mph - N/A   Overcast
9:55 PM 64.4 °F 57.2 °F 77% 30.12 in 10.0 mi ESE 4.6 mph - N/A   Overcast
10:15 PM 64.4 °F 57.2 °F 77% 30.12 in 10.0 mi ESE 3.5 mph - N/A   Overcast
10:35 PM 62.6 °F 57.2 °F 82% 30.13 in 10.0 mi East 4.6 mph - N/A   Scattered Clouds
10:55 PM 62.6 °F 57.2 °F 82% 30.13 in 10.0 mi SE 4.6 mph - N/A   Clear
11:15 PM 62.6 °F 57.2 °F 82% 30.13 in 10.0 mi ESE 3.5 mph - N/A   Clear
11:35 PM 60.8 °F 57.2 °F 88% 30.13 in 10.0 mi NNW 3.5 mph - N/A   Clear
11:55 PM 60.8 °F 57.2 °F 88% 30.13 in 10.0 mi Calm Calm - N/A   Scattered Clouds